星链-32033 (STARLINK-32033)

导读

STARLINK-32033是美国太空探索技术公司(SpaceX)星链(Starlink)星座的组网卫星,于2024年6月27日发射,星链计划旨在构建全球卫星互联网星座,为全球用户提供高速低延迟的宽带网络服务,这类卫星部署近地轨道,持续推进星座扩容,覆盖更多地区。

基本信息
目录编号:
60144
目录名称:
STARLINK-32033
国际标识:
2024-120K
轨道中心:
EARTH
卫星名称:
星链-32033
卫星全名:
星链-32033 (STARLINK-32033)
卫星状态:
在轨 (已飞行799 天)
发射日期:
2024-06-27 UTC
国别 :
美国 (US)
星等 :
--
轨道信息
数据来源 国际轨道数据 AOE轨道数据
星历时间 2026-09-03T22:50:42+0800
13小时前
查看轨道信息
2026-09-02T12:00:00+0800
1天前
查看轨道信息
半长轴 6840.879km 6840.854km
偏心率 0.0001291 0.0001327
轨道倾角 53.159° 53.161°
近地点辐角 95.650° 81.300°
升交点赤经 210.934° 217.723°
平近点角 264.465° 174.484°
近地点 461.858km 461.809km
远地点 463.626km 463.625km
周期 93.849分钟 93.848分钟
每日圈数 15.343872 15.343957
详细信息
固有亮度:
5
最大亮度:
2.5
卫星平台:
Starlink V1.0
覆盖范围:
全球
运营商:
太空探索技术公司
运营商所在国:
美国
制造商(研发单位):
太空探索技术公司
制造商所在国:
美国
使用方式:
暂无
卫星简介
Starlink 计划是 SpaceX 推出的全球卫星互联网项目,通过发射低轨道卫星,为全球尤其是偏远地区提供高速、低延迟的互联网服务。自 2019 年起,Starlink 已部署数千颗卫星,旨在缩小全球数字鸿沟,推动互联网普及。该项目还为军事、航空等行业提供通信支持,带来广泛经济效益。
2D轨道图
3D轨道图
轨道高度分析图
轨道倾角分析图
轨道综合分析图
查看轨道综合分析图
交会数据列表
事件ID 空间交会对象 最接近时刻(TCA) 交会距离 交会风险概率(CRP) 交会风险指数(CRI) 操作
CDM_260901-043805-174406-014422
2026-09-01T
04:38:10+0000
2.656 km
极远距离
5.241004E-7 极低风险 0.29